This is the latest recevied weather packets stored in our database for station/object DO1MIT-10. If no packets are shown the sender has not sent any weather packets the latest 10 day(s).
| Time | Temp. | Humidity | Pressure | Rain* | Wind** | Luminosity | Snow |
|---|---|---|---|---|---|---|---|
| 1777356237 | 7.78° C | 70% | 1025.2 hPa | - | - | - | - |
| 1777355337 | 7.22° C | 70% | 1025 hPa | - | - | - | - |
| 1777354437 | 6.11° C | 71% | 1025 hPa | - | - | - | - |
| 1777353537 | 5° C | 71% | 1025 hPa | - | - | - | - |
| 1777352637 | 3.89° C | 72% | 1024.9 hPa | - | - | - | - |
| 1777351737 | 3.33° C | 72% | 1024.8 hPa | - | - | - | - |
| 1777350837 | 2.78° C | 72% | 1024.8 hPa | - | - | - | - |
| 1777349937 | 2.22° C | 72% | 1024.7 hPa | - | - | - | - |
| 1777349036 | 1.67° C | 71% | 1024.6 hPa | - | - | - | - |
| 1777348136 | 1.67° C | 71% | 1024.7 hPa | - | - | - | - |
| 1777347236 | 1.67° C | 71% | 1024.7 hPa | - | - | - | - |
| 1777346336 | 1.67° C | 71% | 1024.7 hPa | - | - | - | - |
| 1777345436 | 2.22° C | 70% | 1024.6 hPa | - | - | - | - |
| 1777344536 | 2.22° C | 70% | 1024.7 hPa | - | - | - | - |
| 1777343636 | 2.22° C | 70% | 1024.8 hPa | - | - | - | - |
| 1777342736 | 2.22° C | 69% | 1024.5 hPa | - | - | - | - |
| 1777341836 | 2.78° C | 69% | 1024.5 hPa | - | - | - | - |
| 1777340936 | 2.78° C | 69% | 1024.5 hPa | - | - | - | - |
| 1777340036 | 2.78° C | 68% | 1024.5 hPa | - | - | - | - |
| 1777339136 | 2.78° C | 68% | 1024.6 hPa | - | - | - | - |
| 1777338235 | 2.78° C | 67% | 1024.5 hPa | - | - | - | - |
| 1777337335 | 3.33° C | 67% | 1024.3 hPa | - | - | - | - |
| 1777336435 | 3.33° C | 66% | 1024.6 hPa | - | - | - | - |
| 1777335535 | 3.33° C | 66% | 1024.5 hPa | - | - | - | - |
| 1777334635 | 3.33° C | 66% | 1024.4 hPa | - | - | - | - |
* Rain since midnight (hover to see other rain measurements)
** Current wind speed in m/s (hover to see current wind gust speed)